SCP
0 0 0 0 0 0 0 0 0 0 0 0 0 0 0 0 0 0 0 0 0 0 0 0 0 0 0 0 0 0 0 0 0 0 0 0 0 0 0 0 0 0 0 0 0 0 0 0 0
0 0 0 0 0 0 0 0 0 0 0 0 0 0 0 0 0 0 0 0 0 0 0 0 0 0 0 0 0 0 0 0 0 0 0 0 0 0 0 0 0 0 0 0 0 0 0 0 0
0 0 0 0 0 0 0 0 0 0 0 0 0 0 0 0 0 0 0 0 0 0 0 0 0 0 0 0 0 0 0 0 0 0 0 0 0 0 0 0 0 0 0 0 0 0 0 0 0
0 0 0 0 0 0 0 0 0 0 0 0 0 0 0 0 0 0 0 0 0 0 0 0 0 0 0 0 0 0 0 0 0 0 0 0 0 0 0 0 0 0 0 0 0 0 0 0 0
0 0 0 0 0 0 0 0 0 0 0 0 0 0 0 0 0 0 0 0 0 0 0 0 0 0 0 0 0 0 0 0 0 0 0 0 0 0 0 0 0 0 0 0 0 0 0 0 0
0 0 0 0 0 0 0 0 0 0 0 0 0 0 0 0 0 0 0 0 0 0 0 0 0 0 0 0 0 0 0 0 0 0 0 0 0 0 0 0 0 0 0 0 0 0 0 0 0
0 0 0 0 0 0 0 0 0 0 0 0 0 0 0 0 0 0 0 0 0 0 0 0 0 0 0 0 0 0 0 0 0 0 0 0 0 0 0 0 0 0 0 0 0 0 0 0 0
0 0 0 0 0 0 0 0 0 0 0 0 0 0 0 0 0 0 0 0 0 0 0 0 0 0 0 0 0 0 0 0 0 0 0 0 0 0 0 0 0 0 0 0 0 0 0 0 0
0 0 0 0 0 0 0 0 0 0 0 0 0 0 0 0 0 0 0 0 0 0 0 0 0 0 0 0 0 0 0 0 0 0 0 0 0 0 0 0 0 0 0 0 0 0 0 0 0
0 0 0 0 0 0 0 0 0 0 0 0 0 0 0 0 0 0 0 0 0 0 0 0 0 0 0 0 0 0 0 0 0 0 0 0 0 0 0 0 0 0 0 0 0 0 0 0 0
0 0 0 0 0 0 0 0 0 0 0 0 0 0 0 0 0 0 0 0 0 0 0 0 0 0 0 0 0 0 0 0 0 0 0 0 0 0 0 0 0 0 0 0 0 0 0 0 0
0 0 0 0 0 0 0 0 0 0 0 0 0 0 0 0 0 0 0 0 0 0 0 0 0 0 0 0 0 0 0 0 0 0 0 0 0 0 0 0 0 0 0 0 0 0 0 0 0
0 0 0 0 0 0 0 0 0 0 0 0 0 0 0 0 0 0 0 0 0 0 0 0 0 0 0 0 0 0 0 0 0 0 0 0 0 0 0 0 0 0 0 0 0 0 0 0 0
0 0 0 0 0 0 0 0 0 0 0 0 0 0 0 0 0 0 0 0 0 0 0 0 0 0 0 0 0 0 0 0 0 0 0 0 0 0 0 0 0 0 0 0 0 0 0 0 0
0 0 0 0 0 0 0 0 0 0 0 0 0 0 0 0 0 0 0 0 0 0 0 0 0 0 0 0 0 0 0 0 0 0 0 0 0 0 0 0 0 0 0 0 0 0 0 0 0
0 0 0 0 0 0 0 0 0 0 0 0 0 0 0 0 0 0 0 0 0 0 0 0 0 0 0 0 0 0 0 0 0 0 0 0 0 0 0 0 0 0 0 0 0 0 0 0 0
0 0 0 0 0 0 0 0 0 0 0 0 0 0 0 0 0 0 0 0 0 0 0 0 0 0 0 0 0 0 0 0 0 0 0 0 0 0 0 0 0 0 0 0 0 0 0 0 0
0 0 0 0 0 0 0 0 0 0 0 0 0 0 0 0 0 0 0 0 0 0 0 0 0 0 0 0 0 0 0 0 0 0 0 0 0 0 0 0 0 0 0 0 0 0 0 0 0
0 0 0 0 0 0 0 -0 0 0 0 0 0 0 0 0 0 0 0 0 0 0 0 0 0 0 0 0 0 0 0 0 0 0 0 0 0 0 0 0 0 0 0 0 0 0 0 0 0
0 0 0 0 0 0 0 0 -0 0 0 0 0 0 0 0 0 0 0 0 0 0 0 0 0 0 0 0 0 0 0 0 0 0 0 0 0 0 0 0 0 0 0 0 0 0 0 0 0
0 0 0 0 0 0 0 0 -0 0 0 0 0 0 0 0 0 0 0 0 0 0 0 0 0 0 0 0 0 0 0 0 0 0 0 0 0 0 0 0 0 0 0 0 0 0 0 0 0
0 0 0 0 0 0 0 0 -0 -0 0 0 0 0 0 0 0 0 0 0 0 0 0 0 0 0 0 0 0 0 0 0 0 0 0 0 0 0 0 0 0 0 0 0 0 0 0 0 0
0 0 0 0 0 0 0 0 0 -0 0 0 0 0 0 0 0 0 0 0 0 0 0 0 0 0 0 0 0 0 0 0 0 0 0 0 0 0 0 0 0 0 0 0 0 0 0 0 0
0 0 0 0 0 0 0 0 0 0 0 0 0 0 0 0 0 0 0 0 0 0 0 0 0 0 0 0 0 0 0 0 0 0 0 0 0 0 0 0 0 0 0 0 0 0 0 0 0
0 0 0 0 0 0 0 0 0 0 0 0 0 0 0 0 0 0 0 0 0 0 0 0 0 0 0 0 0 0 0 0 0 0 0 0 0 0 0 0 0 0 0 0 0 0 0 0 0
0 0 0 0 0 0 0 0 0 0 0 0 0 0 0 0 0 0 0 0 0 0 0 0 0 0 0 0 0 0 0 0 0 0 0 0 0 0 0 0 0 0 0 0 0 0 0 0 0
0 0 0 0 0 0 0 0 0 0 0 0 0 0 0 0 0 0 0 0 0 0 0 0 0 0 0 0 0 0 0 0 0 0 0 0 0 0 0 0 0 0 0 0 0 0 0 0 0
0 0 0 0 0 0 0 0 0 0 0 0 0 0 0 0 0 0 0 0 0 0 0 0 0 0 0 0 0 0 0 0 0 0 0 0 0 0 0 0 0 0 0 0 0 0 0 0 0
0 0 0 0 0 0 0 0 0 0 0 0 0 0 0 0 0 0 0 0 0 0 0 0 0 0 0 0 0 0 0 0 0 0 0 0 0 0 0 0 0 0 0 0 0 0 0 0 0
0 0 0 0 0 0 0 0 0 0 0 0 0 0 0 0 0 0 0 0 0 0 0 0 0 0 0 0 0 0 0 0 0 0 0 0 0 0 0 0 0 0 0 0 0 0 0 0 0
Wind_Speed
13 10 6 3 3 4 4 3 0 1 1 3 3 3 3 4 4 4 2 4 5 6 7 6 5 6 5 5 5 5 4 5 5 5 6 6 7 7 7 7 7 7 8 9 9 9 9 9 9
10 7 4 4 4 4 4 3 1 1 3 2 1 2 2 4 6 5 3 4 4 6 6 5 5 5 5 5 5 4 4 4 4 5 5 6 6 7 6 7 6 7 8 8 8 8 8 8 8
10 7 4 3 4 4 2 1 2 3 2 1 2 2 3 4 4 3 3 2 3 5 5 6 5 5 5 5 5 4 4 4 4 5 5 6 6 6 6 6 6 7 8 8 8 8 8 8 8
5 4 4 4 5 3 2 0 1 1 1 1 1 3 4 5 4 4 3 2 4 5 5 6 5 5 4 4 4 5 4 4 4 4 5 5 6 6 6 6 6 7 7 7 8 8 8 8 7
4 4 5 5 7 4 1 1 1 1 0 1 0 1 4 4 5 5 3 3 4 5 5 5 4 4 4 4 4 5 4 4 4 4 4 5 6 6 6 6 6 6 7 7 7 8 7 7 7
4 4 4 6 6 3 1 1 1 1 1 1 0 1 4 4 5 4 4 3 4 5 5 5 4 4 3 3 4 4 4 4 4 4 5 5 5 6 6 6 6 6 6 6 6 7 7 6 6
3 4 6 6 4 3 1 1 2 0 1 2 3 1 4 4 5 4 4 4 5 6 5 4 3 4 4 4 3 4 4 4 4 4 5 5 6 6 5 5 5 5 6 6 6 6 6 6 5
4 4 5 5 5 3 1 1 2 3 2 3 4 2 2 3 3 3 3 4 5 5 4 3 2 2 3 3 3 4 4 4 5 5 5 6 6 6 5 5 5 5 5 5 5 5 5 4 4
4 4 4 4 2 1 1 2 2 2 1 2 2 3 4 5 4 4 3 3 3 4 3 3 2 2 2 2 3 3 3 4 4 4 5 4 3 4 4 5 5 5 5 5 5 4 4 2 2
2 4 4 3 4 2 2 2 2 1 2 1 1 3 4 4 3 3 2 2 2 2 2 2 2 1 1 2 3 2 2 2 2 2 3 2 2 2 4 5 5 4 4 4 4 3 2 1 1
2 3 3 4 4 3 3 3 3 2 2 2 1 1 3 3 2 1 2 1 1 1 2 2 2 2 2 1 2 1 1 1 1 2 2 2 2 2 2 2 3 2 3 2 3 2 1 0 0
3 4 4 4 4 3 3 3 4 2 3 2 2 1 2 2 2 1 1 1 1 2 3 2 2 2 2 2 1 1 1 1 1 1 2 1 1 2 2 1 2 1 1 1 1 1 1 1 1
5 5 4 4 3 2 3 5 4 5 3 2 1 0 1 2 1 1 1 1 1 2 2 2 2 2 2 2 1 1 1 1 1 1 1 2 1 1 1 1 1 1 1 1 1 1 1 1 1
2 3 4 5 5 4 4 6 5 6 4 3 2 1 1 1 1 1 1 1 1 1 1 1 2 2 2 2 2 2 2 2 2 2 2 2 2 1 1 1 1 1 1 1 1 1 1 1 1
2 4 6 6 5 3 3 7 8 7 5 4 3 2 1 1 1 1 1 1 1 1 1 1 1 2 2 2 2 2 2 2 2 2 2 3 3 2 1 1 1 1 1 1 1 1 1 1 1
5 5 5 4 4 3 3 9 5 4 5 5 4 2 2 2 2 1 1 1 1 1 1 1 1 1 2 2 2 2 2 3 2 2 2 3 3 2 2 1 1 1 1 1 1 1 1 1 0
5 5 6 4 4 3 6 7 3 2 3 4 4 3 2 2 2 1 1 1 2 2 1 2 2 1 2 2 2 2 3 3 2 2 2 2 3 2 2 1 1 1 1 1 1 1 1 1 0
4 6 6 5 3 4 7 8 5 5 5 5 4 4 3 2 2 2 2 2 2 2 2 2 2 2 2 2 2 2 3 3 2 2 2 3 3 3 2 1 1 2 1 1 1 1 1 0 0
7 8 9 6 2 4 8 9 8 6 6 6 5 4 4 3 2 2 3 3 2 2 2 2 2 1 1 1 1 1 1 2 2 2 3 3 3 3 2 2 2 1 1 1 0 1 1 0 1
7 8 9 6 3 5 7 10 9 7 8 7 6 5 3 2 1 2 2 2 2 2 2 2 2 2 1 1 1 1 2 2 2 2 2 3 3 2 2 2 2 2 1 1 1 1 0 1 0
7 8 7 7 6 6 6 9 9 7 7 6 5 4 3 3 2 2 2 2 2 2 1 1 2 1 1 1 2 2 2 2 1 1 2 2 2 2 2 2 2 1 1 1 1 0 1 1 1
7 4 6 6 5 5 4 7 6 6 6 6 5 4 3 3 3 3 2 2 2 1 1 1 2 2 1 2 2 3 2 1 1 1 1 2 2 2 2 2 2 1 1 1 1 1 1 0 1
4 4 5 7 6 7 6 6 7 4 6 7 5 4 3 3 3 3 2 2 2 1 1 2 2 2 1 2 2 2 2 1 1 2 2 2 2 2 2 2 1 1 1 1 1 1 1 0 1
2 3 5 4 3 7 8 7 7 4 6 4 4 4 4 3 3 3 3 2 2 2 2 2 2 2 1 1 2 2 3 2 2 2 1 1 1 1 1 1 1 1 1 1 1 1 1 1 1
2 0 1 2 4 7 4 6 7 2 1 3 4 4 4 4 4 4 3 2 1 1 1 2 2 2 2 2 1 1 2 3 3 2 1 1 1 0 0 0 0 0 1 1 1 1 1 1 2
5 4 4 4 4 4 3 7 5 1 1 2 2 4 4 4 3 4 3 3 2 2 2 2 2 1 1 2 2 2 1 1 1 1 1 1 1 1 1 1 1 1 1 1 1 1 2 1 2
4 5 3 3 3 4 6 5 3 2 2 1 1 3 3 3 3 3 3 3 2 2 2 2 2 1 1 2 2 2 2 2 1 1 1 1 0 0 0 1 1 1 1 1 1 1 2 1 2
4 2 2 3 4 6 6 6 5 3 3 2 2 2 2 3 3 3 3 2 2 2 2 2 2 2 1 2 1 2 2 2 2 2 1 1 1 1 0 0 1 1 1 1 1 1 2 1 2
5 4 5 4 4 4 5 5 0 3 2 2 1 2 3 3 3 2 2 2 2 2 2 2 2 2 2 2 2 2 1 2 2 1 1 1 0 0 0 0 0 1 1 1 1 2 2 2 2
6 7 7 5 6 5 5 7 1 2 2 2 1 1 2 2 2 2 2 2 2 2 2 2 2 2 2 2 2 1 1 1 1 1 1 1 1 0 0 1 1 1 1 1 2 2 2 2 2
Wind_Direction
300 277 261 252 239 231 233 229 186 68 45 45 15 359 13 23 24 80 99 66 76 99 113 123 110 113 111 112 110 106 113 117 117 117 115 118 116 112 109 105 104 106 102 98 94 90 86 84 81
295 290 261 238 241 232 229 216 145 84 72 73 45 19 29 67 69 88 79 54 86 106 117 127 111 111 108 107 109 109 112 120 123 120 118 118 118 115 111 109 106 105 101 97 97 93 90 88 85
277 267 260 245 245 246 235 65 84 83 95 83 73 35 30 47 68 76 75 77 95 104 113 117 115 111 109 111 110 108 105 111 121 121 120 119 120 118 112 110 108 104 101 100 97 95 95 92 91
277 239 239 247 247 253 251 6 71 137 133 88 98 96 86 42 32 64 86 95 98 101 101 113 118 117 115 116 113 108 104 103 108 119 123 121 119 117 111 108 105 105 102 100 99 99 96 93 92
243 251 234 237 246 250 260 326 325 264 217 116 146 142 101 72 62 78 90 90 91 93 98 112 104 120 121 120 118 113 104 100 100 109 117 118 116 110 108 106 103 103 103 101 100 97 94 90 89
256 249 239 236 238 231 252 315 296 267 325 354 310 222 107 88 70 70 77 76 92 94 97 110 89 96 97 109 119 114 109 104 99 102 104 108 109 108 106 103 100 101 102 102 100 97 96 92 85
275 270 258 253 249 241 256 347 325 300 317 327 321 283 120 76 62 69 79 75 75 80 82 97 117 113 97 87 98 110 109 104 99 99 97 92 100 101 98 100 100 104 104 105 103 98 99 97 87
296 282 259 255 253 263 352 4 336 333 330 13 0 354 78 79 71 82 79 71 69 70 69 71 86 107 119 115 103 103 112 107 97 89 85 86 96 105 102 98 101 106 109 110 108 105 102 99 90
282 260 256 269 271 285 35 357 350 352 15 26 36 26 56 84 86 90 77 67 68 67 63 58 61 76 105 121 117 113 116 112 106 107 105 101 108 112 107 103 97 102 107 114 117 114 106 95 88
259 253 265 323 332 325 338 339 313 248 231 225 125 64 78 84 89 98 96 91 82 73 68 63 54 65 86 103 116 125 124 123 128 129 126 120 100 95 101 99 101 107 111 118 126 128 124 97 99
256 262 284 314 335 339 327 322 307 268 274 277 259 116 114 106 101 110 128 128 121 108 74 60 62 69 79 88 107 111 120 120 117 108 101 101 96 102 109 112 108 118 122 117 121 123 117 94 86
250 280 291 300 333 335 309 298 307 290 261 324 11 54 110 127 134 137 103 69 75 82 70 53 54 69 75 81 90 94 101 104 109 109 98 102 102 105 110 107 112 109 105 104 99 89 75 55 48
242 263 284 299 302 289 290 276 278 265 268 286 333 85 137 160 167 146 113 65 59 60 52 53 47 68 76 91 90 85 89 109 105 96 82 82 102 107 98 99 91 92 93 96 93 79 74 49 32
288 294 280 277 276 267 262 269 253 251 238 244 247 211 173 187 167 157 121 92 59 61 64 65 60 66 73 84 85 78 69 79 83 82 68 68 81 90 99 95 81 64 67 67 72 98 100 69 45
266 272 268 248 242 236 271 267 240 241 235 234 230 211 188 189 154 135 145 144 121 93 76 76 77 77 89 87 82 84 75 74 73 74 66 61 66 72 77 93 90 85 78 76 72 60 78 82 64
239 243 254 231 209 196 224 260 245 223 218 226 227 209 200 197 151 144 137 125 120 110 97 100 78 92 103 97 86 81 79 76 71 72 67 64 58 64 74 72 69 93 100 94 100 93 82 64 50
228 248 257 256 200 197 223 258 249 237 236 234 225 218 204 188 160 132 112 109 125 119 108 100 88 90 93 101 99 86 81 77 72 75 73 69 64 59 69 62 47 68 86 81 84 85 105 137 144
249 257 264 263 217 234 247 255 258 262 251 239 230 220 211 201 183 145 124 104 103 101 93 92 87 71 84 107 104 93 82 74 68 69 70 71 61 52 58 64 51 54 69 53 60 90 72 129 140
286 284 283 288 306 272 257 264 260 245 251 246 231 216 211 201 168 125 111 98 95 90 92 99 100 84 94 112 120 116 103 88 75 65 58 68 63 57 58 57 55 52 63 47 74 105 102 97 78
266 274 279 287 301 290 276 271 264 241 233 238 231 218 206 188 147 85 81 96 103 104 102 113 118 125 123 132 149 133 120 105 97 86 73 66 65 63 61 60 55 53 61 52 47 70 148 172 125
264 259 268 282 300 268 277 276 248 234 218 220 221 206 195 167 155 127 101 76 65 67 71 97 117 123 115 119 124 112 100 91 89 73 81 65 65 60 65 68 65 61 72 65 3 50 107 204 235
266 275 280 280 279 267 238 281 256 228 212 208 204 187 175 151 147 134 120 95 77 59 55 75 86 90 94 102 115 123 134 139 136 122 111 92 79 69 52 57 62 62 61 54 344 338 336 206 242
269 316 291 270 262 271 245 258 269 223 225 214 199 182 165 140 134 132 124 113 94 81 76 80 76 72 86 104 122 136 124 115 107 106 113 104 92 77 48 42 55 50 30 27 357 337 333 274 252
259 295 282 264 244 254 228 225 267 224 228 203 185 165 149 139 135 128 119 106 84 74 74 82 94 72 61 106 125 127 121 116 115 107 118 121 115 95 58 39 38 20 8 349 304 290 280 273 269
226 207 288 257 227 244 212 221 246 228 210 176 171 166 150 144 139 133 128 122 117 101 96 89 92 77 62 70 105 132 138 138 147 149 154 140 136 93 172 18 297 309 316 310 301 288 274 270 266
216 210 210 235 247 271 243 235 240 174 92 87 124 151 147 146 134 132 136 143 146 131 130 116 98 86 74 79 73 63 97 133 142 137 140 158 181 203 208 235 273 291 302 319 293 288 282 279 266
209 223 247 276 291 279 249 242 248 194 187 142 123 130 148 149 135 130 131 132 136 132 145 137 123 93 86 83 80 70 62 77 87 107 102 89 51 346 215 208 259 290 298 293 281 272 274 273 268
248 228 178 207 240 256 260 237 230 193 209 185 162 139 131 136 138 131 127 123 125 134 132 127 122 104 81 76 80 75 74 78 70 70 84 88 54 32 204 258 264 278 295 296 284 287 275 269 272
199 217 218 222 230 239 268 259 121 154 160 155 160 149 156 150 149 142 122 116 113 117 126 133 128 114 99 86 73 65 65 75 75 75 55 60 86 119 175 203 285 284 284 283 281 281 279 261 265
222 214 202 211 234 232 258 266 47 70 106 122 150 165 145 144 149 153 144 132 128 134 136 141 139 135 129 112 97 87 59 63 70 57 31 20 5 324 226 210 241 264 279 283 280 280 284 265 265